| time (UTC) | temp F | wind direction | speed MPH | gust MPH | rain 1hr in | rain 24hr in | rain mn in | humidity % | barometer mb |
| 20260508175300 | 72 | 262 | 2.0 | 3.0 | 0.00 | 0.00 | 0.00 | 38 | 1013.5 |
| 20260508174255 | 70 | 281 | 3.0 | 4.0 | 0.00 | 0.00 | 0.00 | 36 | 1013.7 |
| 20260508173254 | 69 | 222 | 1.0 | 1.0 | 0.00 | 0.00 | 0.00 | 41 | 1013.6 |
| 20260508172254 | 71 | 216 | 4.0 | 6.0 | 0.00 | 0.00 | 0.00 | 34 | 1013.8 |
| 20260508171252 | 70 | 223 | 2.0 | 2.0 | 0.00 | 0.00 | 0.00 | 39 | 1014.0 |
| 20260508170247 | 70 | 102 | 9.0 | 10.0 | 0.00 | 0.00 | 0.00 | 39 | 1014.0 |
| 20260508165247 | 71 | 221 | 3.0 | 4.0 | 0.00 | 0.00 | 0.00 | 39 | 1014.1 |
| 20260508164245 | 70 | 276 | 5.0 | 8.0 | 0.00 | 0.00 | 0.00 | 42 | 1014.2 |
| 20260508163241 | 69 | 279 | 3.0 | 4.0 | 0.00 | 0.00 | 0.00 | 42 | 1014.3 |
| 20260508162239 | 70 | 270 | 8.0 | 13.0 | 0.00 | 0.00 | 0.00 | 40 | 1014.3 |
| 20260508161239 | 70 | 227 | 3.0 | 4.0 | 0.00 | 0.00 | 0.00 | 40 | 1014.5 |
| 20260508160236 | 69 | 264 | 3.0 | 4.0 | 0.00 | 0.00 | 0.00 | 43 | 1014.8 |
| 20260508155235 | 69 | 230 | 5.0 | 8.0 | 0.00 | 0.00 | 0.00 | 44 | 1014.9 |
| 20260508154235 | 68 | 270 | 4.0 | 6.0 | 0.00 | 0.00 | 0.00 | 46 | 1014.8 |
| 20260508153234 | 69 | 271 | 3.0 | 3.0 | 0.00 | 0.00 | 0.00 | 44 | 1014.9 |
| 20260508152232 | 67 | 292 | 1.0 | 1.0 | 0.00 | 0.00 | 0.00 | 45 | 1015.0 |
| 20260508151231 | 67 | 236 | 3.0 | 6.0 | 0.00 | 0.00 | 0.00 | 44 | 1015.3 |
| 20260508150230 | 67 | 191 | 3.0 | 4.0 | 0.00 | 0.00 | 0.00 | 44 | 1015.5 |
| 20260508145228 | 67 | 224 | 3.0 | 6.0 | 0.00 | 0.00 | 0.00 | 44 | 1015.4 |
| 20260508144223 | 66 | 291 | 2.0 | 4.0 | 0.00 | 0.00 | 0.00 | 44 | 1015.6 |
| 20260508143223 | 65 | 88 | 3.0 | 4.0 | 0.00 | 0.00 | 0.00 | 45 | 1015.7 |
| 20260508142222 | 66 | 216 | 6.0 | 8.0 | 0.00 | 0.00 | 0.00 | 41 | 1015.6 |
| 20260508141222 | 66 | 252 | 4.0 | 7.0 | 0.00 | 0.00 | 0.00 | 41 | 1015.7 |
| 20260508140221 | 64 | 216 | 2.0 | 2.0 | 0.00 | 0.00 | 0.00 | 43 | 1015.8 |
| 20260508135219 | 65 | 316 | 4.0 | 6.0 | 0.00 | 0.00 | 0.00 | 41 | 1015.8 |
| 20260508134218 | 65 | 207 | 2.0 | 2.0 | 0.00 | 0.00 | 0.00 | 41 | 1015.7 |
| 20260508133218 | 64 | 290 | 4.0 | 4.0 | 0.00 | 0.00 | 0.00 | 42 | 1015.9 |
| 20260508132213 | 63 | 224 | 1.0 | 2.0 | 0.00 | 0.00 | 0.00 | 45 | 1015.8 |
| 20260508131211 | 62 | 243 | 2.0 | 3.0 | 0.00 | 0.00 | 0.00 | 46 | 1016.0 |
| 20260508130211 | 62 | 284 | 1.0 | 1.0 | 0.00 | 0.00 | 0.00 | 52 | 1016.3 |
| 20260508125209 | 63 | 229 | 1.0 | 1.0 | 0.00 | 0.00 | 0.00 | 45 | 1016.3 |
| 20260508124209 | 61 | 238 | 3.0 | 3.0 | 0.00 | 0.00 | 0.00 | 48 | 1016.4 |
| 20260508123206 | 61 | 176 | 1.0 | 1.0 | 0.00 | 0.00 | 0.00 | 56 | 1016.1 |
| 20260508122204 | 59 | 188 | 0.0 | 1.0 | 0.00 | 0.00 | 0.00 | 58 | 1016.1 |
| 20260508121200 | 57 | 206 | 0.0 | 1.0 | 0.00 | 0.00 | 0.00 | 59 | 1015.8 |
| 20260508120155 | 58 | 200 | 0.0 | 0.0 | 0.00 | 0.00 | 0.00 | 64 | 1016.2 |
| 20260508115155 | 55 | 199 | 0.0 | 0.0 | 0.00 | 0.00 | 0.00 | 77 | 1015.8 |
| 20260508114155 | 51 | 199 | 0.0 | 0.0 | 0.00 | 0.00 | 0.00 | 76 | 1016.0 |
| 20260508113150 | 46 | 209 | 0.0 | 0.0 | 0.00 | 0.00 | 0.00 | 91 | 1015.9 |
| 20260508112148 | 42 | 213 | 0.0 | 0.0 | 0.00 | 0.00 | 0.00 | 95 | 1015.5 |
| 20260508111148 | 40 | 216 | 0.0 | 0.0 | 0.00 | 0.00 | 0.00 | 95 | 1015.6 |
| 20260508110148 | 39 | 232 | 1.0 | 1.0 | 0.00 | 0.00 | 0.00 | 95 | 1015.6 |
| 20260508105146 | 38 | 218 | 1.0 | 1.0 | 0.00 | 0.00 | 0.00 | 95 | 1015.1 |
| 20260508104145 | 37 | 219 | 1.0 | 1.0 | 0.00 | 0.00 | 0.00 | 95 | 1015.3 |
| 20260508103146 | 37 | 205 | 0.0 | 0.0 | 0.00 | 0.00 | 0.00 | 95 | 1015.0 |
| 20260508102141 | 37 | 218 | 0.0 | 0.0 | 0.00 | 0.00 | 0.00 | 94 | 1014.9 |
| 20260508101141 | 37 | 217 | 0.0 | 0.0 | 0.00 | 0.00 | 0.00 | 94 | 1014.8 |
| 20260508100136 | 38 | 216 | 0.0 | 0.0 | 0.00 | 0.00 | 0.00 | 93 | 1014.7 |
| 20260508095135 | 38 | 224 | 1.0 | 1.0 | 0.00 | 0.00 | 0.00 | 93 | 1014.7 |
| 20260508094135 | 39 | 223 | 1.0 | 1.0 | 0.00 | 0.00 | 0.00 | 92 | 1014.5 |
| 20260508093130 | 39 | 213 | 1.0 | 1.0 | 0.00 | 0.00 | 0.00 | 91 | 1014.5 |
| 20260508092125 | 39 | 227 | 1.0 | 1.0 | 0.00 | 0.00 | 0.00 | 90 | 1014.3 |
| 20260508091125 | 40 | 219 | 2.0 | 2.0 | 0.00 | 0.00 | 0.00 | 88 | 1014.6 |
| 20260508090120 | 40 | 230 | 0.0 | 0.0 | 0.00 | 0.00 | 0.00 | 89 | 1014.5 |
| 20260508085119 | 40 | 231 | 1.0 | 1.0 | 0.00 | 0.00 | 0.00 | 89 | 1014.4 |
| 20260508084119 | 40 | 217 | 0.0 | 0.0 | 0.00 | 0.00 | 0.00 | 88 | 1014.3 |
| 20260508083119 | 40 | 220 | 1.0 | 1.0 | 0.00 | 0.00 | 0.00 | 89 | 1014.4 |
| 20260508082118 | 40 | 222 | 0.0 | 0.0 | 0.00 | 0.00 | 0.00 | 89 | 1014.4 |
| 20260508081117 | 40 | 214 | 0.0 | 0.0 | 0.00 | 0.00 | 0.00 | 88 | 1014.1 |
| 20260508080113 | 40 | 221 | 0.0 | 0.0 | 0.00 | 0.00 | 0.00 | 89 | 1014.2 |
| 20260508075112 | 41 | 216 | 0.0 | 0.0 | 0.00 | 0.00 | 0.00 | 87 | 1014.0 |
| 20260508074112 | 41 | 224 | 0.0 | 1.0 | 0.00 | 0.00 | 0.00 | 87 | 1013.8 |
| 20260508073107 | 41 | 203 | 0.0 | 0.0 | 0.00 | 0.00 | 0.00 | 88 | 1013.9 |
| 20260508072106 | 42 | 222 | 0.0 | 0.0 | 0.00 | 0.00 | 0.00 | 86 | 1013.7 |
| 20260508071102 | 42 | 213 | 0.0 | 0.0 | 0.00 | 0.00 | 0.00 | 86 | 1013.6 |
| 20260508070057 | 43 | 210 | 0.0 | 0.0 | 0.00 | 0.00 | 0.00 | 84 | 1013.5 |
| 20260508065052 | 43 | 208 | 0.0 | 0.0 | 0.00 | 0.00 | 0.00 | 84 | 1013.5 |
| 20260508064047 | 44 | 217 | 0.0 | 0.0 | 0.00 | 0.00 | 0.00 | 83 | 1013.4 |
| 20260508063042 | 44 | 206 | 0.0 | 0.0 | 0.00 | 0.00 | 0.00 | 81 | 1013.1 |
| 20260508062042 | 45 | 214 | 0.0 | 0.0 | 0.00 | 0.00 | 0.00 | 80 | 1013.1 |
| 20260508061042 | 46 | 218 | 0.0 | 0.0 | 0.00 | 0.00 | 0.00 | 77 | 1013.0 |
| 20260508060037 | 47 | 196 | 0.0 | 0.0 | 0.00 | 0.00 | 0.00 | 74 | 1012.7 |
| 20260508055035 | 49 | 32 | 1.0 | 1.0 | 0.00 | 0.00 | 0.00 | 70 | 1012.9 |
| 20260508054035 | 50 | 209 | 0.0 | 0.0 | 0.00 | 0.00 | 0.00 | 65 | 1013.0 |
| 20260508053030 | 53 | 224 | 1.0 | 2.0 | 0.00 | 0.00 | 0.00 | 61 | 1012.8 |
| 20260508052029 | 52 | 225 | 0.0 | 1.0 | 0.00 | 0.00 | 0.00 | 61 | 1012.8 |
| 20260508051027 | 52 | 218 | 0.0 | 0.0 | 0.00 | 0.00 | 0.00 | 64 | 1012.8 |
| 20260508050026 | 53 | 234 | 0.0 | 0.0 | 0.00 | 0.00 | 0.00 | 65 | 1012.7 |
| 20260508045026 | 54 | 222 | 2.0 | 3.0 | 0.00 | 0.00 | 0.00 | 61 | 1012.5 |
| 20260508044025 | 53 | 248 | 2.0 | 2.0 | 0.00 | 0.00 | 0.00 | 68 | 1012.1 |
| 20260508043025 | 52 | 236 | 0.0 | 1.0 | 0.00 | 0.00 | 0.00 | 71 | 1012.4 |
| 20260508042025 | 46 | 291 | 4.0 | 6.0 | 0.00 | 0.00 | 0.00 | 90 | 1012.0 |
| 20260508041023 | 45 | 203 | 0.0 | 0.0 | 0.00 | 0.00 | 0.00 | 95 | 1012.0 |
| 20260508040018 | 46 | 161 | 0.0 | 0.0 | 0.00 | 0.07 | 0.07 | 95 | 1011.7 |
| 20260508035018 | 47 | 215 | 0.0 | 0.0 | 0.00 | 0.07 | 0.07 | 94 | 1011.7 |
| 20260508034017 | 48 | 219 | 0.0 | 0.0 | 0.00 | 0.07 | 0.07 | 93 | 1011.6 |
| 20260508033013 | 48 | 211 | 0.0 | 0.0 | 0.00 | 0.07 | 0.07 | 92 | 1011.7 |
| 20260508032013 | 48 | 228 | 0.0 | 0.0 | 0.00 | 0.07 | 0.07 | 91 | 1011.6 |
| 20260508031011 | 49 | 204 | 0.0 | 0.0 | 0.00 | 0.07 | 0.07 | 91 | 1011.5 |
| 20260508030006 | 49 | 200 | 0.0 | 0.0 | 0.00 | 0.07 | 0.07 | 90 | 1011.4 |
| 20260508025005 | 50 | 199 | 0.0 | 1.0 | 0.00 | 0.07 | 0.07 | 88 | 1011.4 |
| 20260508024003 | 51 | 204 | 0.0 | 0.0 | 0.00 | 0.07 | 0.07 | 87 | 1011.5 |
| 20260508023003 | 51 | 189 | 0.0 | 1.0 | 0.00 | 0.07 | 0.07 | 86 | 1011.3 |
| 20260508022001 | 51 | 195 | 0.0 | 0.0 | 0.00 | 0.07 | 0.07 | 86 | 1011.3 |
| 20260508020959 | 51 | 250 | 1.0 | 1.0 | 0.00 | 0.07 | 0.07 | 85 | 1011.4 |
| 20260508015959 | 52 | 200 | 0.0 | 0.0 | 0.00 | 0.07 | 0.07 | 84 | 1011.0 |
| 20260508015000 | 52 | 186 | 0.0 | 1.0 | 0.00 | 0.07 | 0.07 | 84 | 1011.1 |
| 20260508013958 | 53 | 215 | 0.0 | 0.0 | 0.00 | 0.07 | 0.07 | 83 | 1011.2 |
| 20260508012958 | 53 | 225 | 0.0 | 1.0 | 0.00 | 0.07 | 0.07 | 82 | 1010.8 |
| 20260508011958 | 53 | 212 | 0.0 | 0.0 | 0.00 | 0.07 | 0.07 | 82 | 1010.8 |
| 20260508010953 | 53 | 188 | 1.0 | 1.0 | 0.00 | 0.07 | 0.07 | 81 | 1010.6 |
| 20260508005953 | 54 | 198 | 0.0 | 0.0 | 0.00 | 0.07 | 0.07 | 80 | 1010.7 |
| 20260508004952 | 55 | 206 | 0.0 | 0.0 | 0.00 | 0.07 | 0.07 | 78 | 1010.4 |
| 20260508003951 | 55 | 192 | 0.0 | 1.0 | 0.00 | 0.07 | 0.07 | 76 | 1010.2 |
| 20260508002951 | 55 | 156 | 2.0 | 2.0 | 0.00 | 0.07 | 0.07 | 75 | 1010.0 |
| 20260508001949 | 56 | 193 | 1.0 | 1.0 | 0.00 | 0.07 | 0.07 | 74 | 1010.1 |
| 20260508000948 | 57 | 228 | 1.0 | 1.0 | 0.00 | 0.07 | 0.07 | 71 | 1009.9 |
| 20260507235947 | 57 | 193 | 2.0 | 3.0 | 0.00 | 0.07 | 0.07 | 69 | 1009.7 |
| 20260507234942 | 58 | 198 | 1.0 | 1.0 | 0.00 | 0.07 | 0.07 | 68 | 1009.6 |
| 20260507233941 | 59 | 157 | 1.0 | 2.0 | 0.00 | 0.07 | 0.07 | 68 | 1009.5 |
| 20260507232936 | 59 | 157 | 3.0 | 4.0 | 0.00 | 0.07 | 0.07 | 66 | 1009.4 |
| 20260507231935 | 60 | 230 | 2.0 | 3.0 | 0.00 | 0.07 | 0.07 | 65 | 1009.3 |
| 20260507230934 | 60 | 214 | 3.0 | 6.0 | 0.00 | 0.07 | 0.07 | 65 | 1009.3 |
| 20260507225932 | 61 | 189 | 1.0 | 2.0 | 0.00 | 0.07 | 0.07 | 62 | 1009.0 |
| 20260507224930 | 61 | 208 | 1.0 | 3.0 | 0.00 | 0.07 | 0.07 | 63 | 1009.1 |
| 20260507223929 | 62 | 158 | 3.0 | 3.0 | 0.00 | 0.07 | 0.07 | 60 | 1008.8 |
| 20260507222928 | 62 | 181 | 4.0 | 6.0 | 0.00 | 0.07 | 0.07 | 58 | 1008.7 |
| 20260507221927 | 63 | 176 | 1.0 | 2.0 | 0.00 | 0.07 | 0.07 | 59 | 1008.7 |
| 20260507220926 | 64 | 318 | 2.0 | 2.0 | 0.00 | 0.07 | 0.07 | 56 | 1008.6 |
| 20260507215926 | 64 | 183 | 1.0 | 1.0 | 0.00 | 0.07 | 0.07 | 58 | 1008.8 |
| 20260507214926 | 62 | 225 | 2.0 | 2.0 | 0.00 | 0.07 | 0.07 | 60 | 1008.7 |
| 20260507213925 | 63 | 240 | 2.0 | 3.0 | 0.00 | 0.07 | 0.07 | 60 | 1008.6 |
| 20260507212925 | 63 | 165 | 3.0 | 3.0 | 0.00 | 0.07 | 0.07 | 55 | 1008.7 |
| 20260507211924 | 63 | 211 | 0.0 | 1.0 | 0.00 | 0.07 | 0.07 | 60 | 1008.7 |
| 20260507210923 | 62 | 255 | 2.0 | 2.0 | 0.00 | 0.07 | 0.07 | 58 | 1008.6 |
| 20260507205922 | 64 | 207 | 0.0 | 0.0 | 0.00 | 0.07 | 0.07 | 55 | 1008.6 |
| 20260507204921 | 64 | 187 | 2.0 | 4.0 | 0.00 | 0.07 | 0.07 | 56 | 1008.6 |
| 20260507203922 | 64 | 241 | 2.0 | 2.0 | 0.00 | 0.07 | 0.07 | 57 | 1008.5 |
| 20260507202922 | 63 | 147 | 4.0 | 7.0 | 0.00 | 0.07 | 0.07 | 59 | 1009.0 |
| 20260507201920 | 64 | 168 | 2.0 | 3.0 | 0.00 | 0.07 | 0.07 | 60 | 1008.7 |
| 20260507200918 | 62 | 178 | 4.0 | 7.0 | 0.00 | 0.07 | 0.07 | 59 | 1008.5 |
| 20260507195915 | 63 | 171 | 5.0 | 7.0 | 0.00 | 0.07 | 0.07 | 57 | 1008.7 |
| 20260507194910 | 63 | 163 | 2.0 | 2.0 | 0.00 | 0.07 | 0.07 | 59 | 1009.1 |
| 20260507193908 | 70 | 105 | 0.0 | 1.0 | 0.00 | 0.07 | 0.07 | 50 | 1008.8 |
| 20260507192908 | 69 | 228 | 0.0 | 1.0 | 0.00 | 0.07 | 0.07 | 42 | 1008.9 |
| 20260507191907 | 68 | 249 | 1.0 | 2.0 | 0.00 | 0.07 | 0.07 | 51 | 1009.1 |
| 20260507190905 | 69 | 257 | 2.0 | 3.0 | 0.00 | 0.07 | 0.07 | 43 | 1009.2 |
| 20260507185902 | 69 | 254 | 2.0 | 2.0 | 0.00 | 0.07 | 0.07 | 49 | 1009.5 |
| 20260507184901 | 70 | 225 | 1.0 | 1.0 | 0.00 | 0.07 | 0.07 | 46 | 1009.3 |
| 20260507183856 | 68 | 204 | 0.0 | 1.0 | 0.00 | 0.07 | 0.07 | 48 | 1009.3 |
| 20260507182850 | 68 | 269 | 4.0 | 4.0 | 0.00 | 0.07 | 0.07 | 46 | 1009.7 |
| 20260507181848 | 67 | 246 | 2.0 | 3.0 | 0.00 | 0.07 | 0.07 | 51 | 1009.6 |
| 20260507180847 | 66 | 117 | 2.0 | 3.0 | 0.00 | 0.07 | 0.07 | 49 | 1009.9 |
| 20260507175845 | 65 | 111 | 2.0 | 3.0 | 0.00 | 0.07 | 0.07 | 56 | 1010.0 |